Lapse_Rate
5.3 5.6 5.6 6.0 6.4 7.0 7.6 8.6 8.7 8.4 8.9 9.5 9.4 9.0 7.6 7.6 7.5 5.9 6.0 5.9 5.6 5.3 5.2 5.1 5.1 5.1 5.3 5.9 6.1 5.9 5.8 6.0 5.6 5.8 5.8 5.9 5.9 5.3 5.7 5.3 5.2 5.4 5.2 5.7
5.8 5.7 6.1 6.5 6.8 7.0 7.5 7.8 8.2 9.3 8.8 9.6 9.7 9.4 8.3 7.3 7.5 6.9 5.8 6.1 5.6 5.3 5.1 5.0 5.0 5.0 5.0 5.9 6.3 5.9 6.0 6.2 5.6 5.8 5.7 5.6 5.7 5.6 5.4 5.4 5.7 5.4 5.4 5.7
6.0 6.4 6.6 6.7 6.9 7.1 7.3 7.5 8.0 8.5 9.5 9.7 9.7 9.6 8.6 6.9 7.2 5.9 5.7 6.7 5.8 5.6 5.4 5.2 5.2 4.9 5.0 6.0 6.5 6.0 6.1 6.2 5.8 5.6 5.6 5.6 5.7 5.6 5.4 5.5 5.8 5.8 5.6 5.6
6.3 6.5 6.8 6.9 6.9 7.2 7.3 7.8 7.8 8.1 8.6 9.2 9.7 9.7 9.1 7.4 7.8 5.6 5.2 6.5 6.1 5.8 5.7 5.3 5.5 5.3 5.5 6.4 6.5 6.2 6.0 6.1 5.8 5.6 5.7 5.6 5.7 5.8 5.5 5.4 5.6 5.8 5.8 5.7
6.7 6.9 7.1 7.0 7.1 7.3 7.1 7.9 8.0 8.0 7.9 8.3 9.1 9.6 9.1 9.2 7.6 7.3 5.6 6.4 6.7 6.1 5.7 5.8 6.1 6.5 6.5 6.0 6.4 6.3 6.0 6.1 5.8 5.8 5.8 5.7 5.6 5.5 4.8 5.3 5.8 5.8 5.7 5.7
6.7 7.0 7.3 7.2 7.1 7.0 7.3 7.6 7.7 7.5 7.9 8.4 8.2 9.0 9.4 9.2 8.1 8.0 7.4 6.3 7.3 6.5 6.2 6.0 6.1 6.1 6.0 6.1 6.3 6.2 6.1 6.1 5.9 5.7 5.7 5.8 5.6 5.7 5.6 5.5 5.7 5.8 5.5 5.4
7.3 7.2 7.5 7.5 7.1 7.3 7.4 7.7 7.6 7.7 8.2 7.9 8.0 8.1 7.9 9.0 9.1 8.7 7.7 7.7 7.1 6.7 6.4 6.2 5.7 6.0 6.6 6.7 6.9 6.6 6.5 6.3 6.1 5.8 5.7 5.9 5.6 5.8 5.7 5.7 5.8 5.7 5.8 5.6
8.1 8.9 8.2 8.3 7.5 7.8 7.8 7.9 8.2 7.8 8.2 7.9 8.2 8.3 7.4 8.1 8.9 9.2 8.3 7.4 6.6 6.8 6.3 6.9 5.8 6.3 6.9 6.8 7.1 7.2 6.9 6.5 6.3 6.1 5.8 5.9 5.8 5.6 5.7 5.7 5.8 5.9 5.7 5.9
8.3 8.5 9.4 9.6 8.7 8.5 8.1 9.4 7.8 9.0 9.5 9.2 9.4 9.2 8.1 8.5 9.0 9.0 9.0 7.4 7.1 6.3 6.8 6.4 7.1 6.1 6.8 6.6 6.9 7.3 7.5 6.9 6.4 6.4 6.0 5.9 5.9 5.6 5.9 5.9 5.8 5.7 5.8 5.3
7.1 7.3 8.2 9.2 9.6 9.6 9.3 8.7 9.5 9.5 9.3 9.4 9.6 9.6 9.4 8.9 8.6 9.0 9.0 8.3 7.6 6.5 6.2 6.3 6.3 6.7 7.0 7.0 6.9 6.8 6.9 7.1 6.6 6.2 6.2 6.0 6.1 5.9 5.8 5.9 5.8 5.9 5.8 5.8
6.7 7.1 7.5 8.4 9.2 9.5 9.4 8.8 9.0 9.3 9.5 9.7 9.5 9.7 9.6 9.5 9.2 8.9 8.7 8.6 8.0 7.8 5.9 7.7 6.9 6.6 6.4 7.3 6.9 7.0 6.9 7.0 6.8 6.4 6.2 6.0 5.9 5.9 5.7 5.9 6.1 5.9 5.9 6.0
6.9 7.0 7.3 8.0 8.5 9.6 9.5 9.4 9.1 9.4 9.0 9.1 9.4 9.6 9.2 9.1 9.4 9.2 8.9 8.9 8.7 8.6 6.8 7.0 7.2 6.8 6.8 6.4 6.6 7.2 7.2 7.0 6.9 6.9 6.7 6.5 6.2 5.9 5.9 6.1 6.3 6.2 6.0 6.2
6.8 6.9 7.3 7.5 7.8 8.6 9.1 8.3 8.7 9.6 9.1 9.1 9.8 9.1 9.0 9.0 9.9 9.6 9.4 8.8 8.8 8.7 8.5 8.1 7.1 7.3 7.3 7.4 6.8 7.1 7.5 7.5 7.1 6.8 6.8 6.7 6.5 6.2 6.2 6.2 6.5 6.3 6.3 6.3
6.9 6.8 7.3 7.8 8.9 8.7 9.3 9.6 9.6 9.5 9.5 9.2 8.9 9.4 9.2 9.5 9.3 9.4 9.5 9.5 8.6 8.4 8.9 8.6 8.2 6.2 6.6 7.1 7.6 7.3 7.6 7.7 7.3 7.0 6.8 6.8 6.7 6.8 6.6 6.3 6.3 6.5 6.3 6.4
7.6 7.6 7.7 7.6 7.8 8.3 8.3 8.9 9.0 9.2 9.3 9.3 9.3 8.9 9.0 8.7 8.5 8.7 9.1 9.3 8.4 9.0 9.0 9.0 9.2 8.9 6.8 7.1 7.6 7.8 7.6 7.7 7.6 7.1 6.8 6.9 6.8 6.7 6.8 6.6 6.4 6.5 6.5 6.5
7.7 7.4 7.8 7.4 7.3 7.3 7.8 8.2 8.4 8.1 9.0 9.2 8.5 8.5 8.1 7.3 7.8 7.9 8.0 8.4 8.8 8.0 8.6 8.9 8.8 9.1 8.2 7.8 7.5 7.7 7.7 7.5 7.3 7.7 7.2 6.8 6.8 6.7 6.8 6.8 6.7 6.5 6.6 6.5
7.5 7.6 7.5 7.3 8.3 7.8 7.9 7.7 8.5 8.2 7.7 8.1 8.3 7.1 7.7 7.5 7.0 7.1 6.9 7.4 7.2 7.9 7.3 7.1 7.5 8.3 7.2 6.3 6.7 7.2 7.6 7.6 7.7 7.7 7.4 7.1 7.0 6.8 6.7 6.8 6.8 6.8 6.6 6.6
7.9 7.5 7.3 7.0 7.5 7.7 7.4 8.3 8.4 8.3 7.8 7.4 7.5 7.2 7.0 7.3 6.9 7.0 6.7 6.5 6.5 6.7 7.3 6.6 6.4 6.7 6.8 7.1 6.4 6.9 7.4 7.6 7.5 7.9 7.8 7.7 7.3 7.2 6.9 6.7 6.8 6.9 6.9 6.7
8.2 8.3 7.3 7.1 7.4 7.7 8.4 8.9 8.5 8.4 8.7 8.5 7.9 7.2 6.3 7.0 6.9 7.0 6.3 6.1 6.7 6.1 6.3 7.2 7.1 7.3 7.2 7.5 7.4 6.6 6.8 7.5 8.0 8.1 8.2 8.1 7.9 7.4 7.0 6.8 6.9 6.8 6.9 6.9
7.6 7.8 7.7 7.8 7.7 8.0 8.4 7.6 7.9 7.7 7.5 8.0 6.9 6.5 6.5 6.1 6.7 6.6 6.8 6.1 6.1 5.9 5.2 6.2 7.2 7.2 7.5 7.7 7.5 7.5 6.8 6.9 8.3 8.3 8.6 8.5 8.1 7.7 7.3 7.0 6.8 6.8 6.8 7.0
7.0 7.4 7.3 7.1 7.6 8.0 8.3 7.4 7.7 7.7 7.8 7.5 7.2 6.8 6.6 6.6 6.4 6.8 6.1 5.9 5.7 5.8 6.0 6.5 6.7 6.9 6.8 7.0 7.5 7.1 6.9 7.5 8.5 8.2 8.1 8.6 8.3 8.0 7.7 7.2 6.7 6.6 6.6 6.8
6.6 6.8 7.2 7.2 7.5 7.4 8.0 7.9 7.6 7.4 6.7 7.1 6.7 6.8 6.8 7.0 6.7 6.2 6.1 5.9 6.2 6.2 6.0 6.6 6.8 6.4 6.7 7.3 7.5 7.9 7.5 8.1 8.1 8.1 8.1 8.6 8.5 8.0 7.8 7.4 7.0 6.6 6.5 6.5
6.3 6.2 6.1 6.6 7.0 7.0 6.8 6.7 7.1 7.0 6.8 7.4 7.4 7.1 6.6 6.5 6.6 6.8 6.7 5.9 5.9 6.4 6.2 6.4 7.1 7.1 7.0 7.0 7.3 8.1 8.1 7.6 8.3 8.3 8.4 8.4 8.5 8.3 7.9 7.6 7.3 6.9 6.7 6.5
5.9 5.9 5.8 6.0 6.7 6.4 6.9 6.9 7.0 7.2 7.0 6.9 7.1 6.8 6.5 6.2 6.6 6.9 7.2 6.5 6.0 6.6 7.1 6.8 7.0 7.3 7.0 6.8 7.1 7.7 8.2 8.4 8.3 8.4 8.4 8.5 8.5 8.7 8.1 7.7 7.5 7.2 6.9 6.8
5.7 5.7 5.6 5.7 5.9 6.3 6.0 6.1 6.8 6.8 6.9 6.9 7.2 6.5 5.8 6.1 5.5 5.6 6.6 7.3 7.2 6.9 6.8 7.2 7.3 7.3 7.0 6.7 7.1 7.6 7.8 8.1 8.6 8.5 8.3 8.2 8.5 8.7 8.7 7.9 7.8 7.3 7.1 7.1
5.7 5.6 5.3 5.2 5.2 5.0 5.2 5.5 5.9 6.1 6.8 7.0 7.1 6.8 5.8 5.6 5.5 5.3 5.5 5.7 5.8 6.0 6.3 6.6 7.1 7.0 6.9 6.7 7.0 7.3 7.5 8.0 8.4 8.7 8.8 8.5 8.7 8.9 8.6 8.2 8.0 7.5 7.1 6.9
Wind_Speed
17 12 16 19 21 21 21 19 18 17 20 20 21 14 15 15 13 8 14 20 22 24 20 19 18 19 20 17 16 11 10 14 9 7 7 5 5 3 6 5 13 7 8 10
13 20 18 19 21 21 23 21 20 15 19 20 17 15 17 10 5 17 25 22 22 23 26 21 18 18 19 17 17 13 12 14 10 7 5 5 4 5 3 10 12 12 6 10
20 15 22 21 19 20 19 21 19 17 12 20 18 17 19 13 15 14 30 23 23 23 25 23 21 20 19 19 18 16 12 15 11 8 6 4 4 4 7 5 5 5 9 9
19 20 22 20 22 19 20 19 19 20 15 14 14 14 21 25 25 19 13 24 24 23 23 23 23 20 20 20 19 18 14 14 12 10 9 7 6 5 4 4 4 7 10 9
15 20 19 23 16 20 20 19 16 18 18 19 22 16 17 23 21 10 17 20 25 25 25 26 25 23 21 20 19 18 17 14 14 13 8 8 8 6 4 6 9 8 5 8
15 18 16 18 20 17 16 20 18 16 16 16 21 19 16 16 21 21 14 23 22 26 24 25 24 23 20 19 20 19 19 17 15 15 12 11 11 7 5 6 8 7 7 4
16 18 18 17 14 20 19 15 12 15 15 17 21 19 15 16 24 27 26 26 21 25 25 22 25 24 23 24 23 21 22 20 18 18 15 12 13 11 7 7 8 8 7 8
15 13 20 18 20 17 22 20 15 19 15 18 21 21 19 21 23 29 28 19 12 24 26 27 25 24 25 24 24 23 24 22 22 19 19 13 12 10 8 6 6 6 8 8
11 18 20 8 19 17 22 20 22 24 22 17 17 17 25 20 23 20 25 24 12 30 26 28 27 25 24 24 24 23 23 23 22 22 17 16 13 12 10 7 5 6 5 2
10 17 20 18 12 13 18 20 20 16 22 23 19 23 15 21 19 20 20 25 26 19 27 26 23 24 23 24 22 22 21 23 22 22 18 16 16 16 9 10 7 7 6 6
10 13 22 20 17 18 16 17 21 15 16 17 17 16 17 21 23 19 21 19 25 25 18 22 22 21 21 22 22 22 21 23 22 21 20 18 17 16 15 11 11 11 9 5
10 12 16 19 23 15 16 18 22 14 19 16 18 17 12 17 23 19 15 17 16 26 26 7 6 22 22 21 23 23 22 21 22 21 20 20 17 18 17 15 15 12 12 9
11 12 11 17 18 22 15 23 23 22 21 19 16 18 18 13 7 18 16 15 13 12 18 11 7 23 24 24 21 22 22 23 21 21 20 19 19 18 19 19 15 16 12 10
11 13 16 15 15 15 14 20 20 24 16 18 19 19 20 12 21 10 8 8 11 9 15 24 27 34 31 24 22 20 22 22 21 22 21 20 21 21 19 17 18 14 16 15
8 16 19 22 27 20 21 19 15 22 21 21 19 21 15 20 18 19 20 4 9 6 9 10 8 17 16 16 20 20 19 20 21 20 22 22 19 19 18 17 17 18 15 15
8 10 18 20 22 21 23 21 20 22 29 22 23 20 17 17 19 18 17 24 11 15 16 16 13 10 21 28 20 20 20 20 18 20 21 18 19 19 18 18 18 18 18 16
6 5 8 17 18 20 22 24 19 18 18 13 18 20 17 8 14 13 15 15 18 12 13 15 14 12 11 6 7 17 19 17 19 17 18 19 19 19 20 18 17 18 18 16
10 6 1 8 11 13 16 18 20 21 20 19 21 20 20 16 17 13 10 16 17 9 10 11 13 14 14 13 15 18 18 17 16 18 17 18 19 20 19 19 19 18 16 18
16 12 5 4 10 16 18 14 7 12 19 16 14 15 19 21 16 19 12 18 19 13 4 9 11 14 13 14 15 10 16 19 18 17 18 19 19 19 19 20 19 17 16 16
14 13 8 9 8 9 15 10 10 11 10 8 12 15 18 20 14 12 2 13 18 14 12 12 13 14 14 13 15 15 11 16 19 20 17 15 18 17 19 19 18 17 16 16
7 7 14 11 12 12 12 0 9 9 6 10 11 13 18 16 16 11 12 9 7 12 12 12 10 10 11 11 19 17 13 15 18 17 15 17 16 18 18 17 15 16 16 15
5 6 5 9 13 15 13 5 11 10 15 14 14 14 16 21 24 17 8 8 8 10 13 15 10 12 13 15 19 15 14 9 11 15 17 15 16 14 14 18 16 16 16 16
2 4 4 5 4 14 14 16 18 15 17 20 20 15 15 18 19 16 11 9 8 9 11 12 12 10 11 14 15 16 9 9 11 14 16 14 16 15 14 16 16 13 15 14
3 5 3 9 6 18 18 18 16 15 17 19 21 16 14 17 17 15 10 8 8 9 9 11 12 11 12 13 15 14 14 17 14 14 15 13 14 14 15 12 13 13 13 13
3 9 5 5 9 18 8 17 18 21 23 22 22 14 13 13 10 9 9 10 10 8 8 8 9 10 12 13 14 15 15 15 5 11 12 12 12 13 14 14 13 13 14 14
2 2 2 3 10 6 11 14 17 16 24 16 16 13 13 5 3 8 6 5 5 7 7 7 8 9 10 11 12 14 14 14 11 4 8 9 10 11 11 13 8 7 8 10
Wind_Direction
206 214 217 226 231 238 265 273 234 239 231 234 206 163 149 171 213 224 229 177 184 175 182 176 181 167 159 164 160 174 180 152 159 160 180 219 154 225 159 157 164 182 162 143
207 227 227 232 237 232 248 266 274 260 246 219 210 190 160 138 343 256 258 173 191 183 172 178 185 174 165 166 161 174 172 155 162 166 207 202 171 221 190 158 170 159 191 134
227 225 217 238 239 244 232 249 260 270 275 255 224 203 156 189 184 246 257 173 188 184 178 172 182 182 171 168 165 169 175 158 166 187 201 221 197 218 168 163 147 170 181 177
236 233 261 209 239 240 244 243 251 268 269 261 213 252 190 185 183 204 230 173 182 189 183 178 180 185 182 171 166 167 177 165 175 190 188 197 206 198 192 163 183 166 192 182
249 238 233 253 239 231 253 255 256 250 265 267 262 223 244 189 185 153 250 232 183 183 187 185 182 189 183 171 171 170 176 176 177 195 198 188 217 214 194 174 173 156 182 192
273 280 254 244 254 248 250 250 264 262 241 249 249 254 232 216 179 175 168 253 193 180 189 183 184 180 187 179 174 172 177 183 182 191 208 191 208 226 201 206 151 156 167 194
236 246 262 264 258 241 230 242 232 239 241 240 234 243 242 254 177 177 189 216 209 178 180 189 180 181 185 183 180 178 177 184 185 188 200 207 200 218 243 199 170 174 181 181
285 253 213 223 237 246 232 222 230 229 233 239 231 238 230 247 264 190 184 200 202 249 179 181 181 183 183 187 183 183 178 182 184 188 199 200 198 214 217 218 202 181 196 192
279 261 276 284 216 219 247 231 234 255 257 249 249 219 243 239 241 246 172 166 190 258 178 180 176 181 181 186 186 186 180 184 185 192 191 197 197 209 207 214 210 207 240 232
306 307 292 294 220 243 232 254 228 231 250 258 255 249 234 215 230 235 239 186 174 192 257 175 181 178 180 185 185 186 182 185 187 190 192 196 200 197 205 215 209 215 230 233
293 286 282 292 276 217 221 245 257 271 237 253 258 259 259 207 204 208 227 240 178 191 231 179 172 181 181 182 185 186 187 182 187 188 195 197 197 203 205 205 213 201 223 253
279 288 285 269 272 262 247 258 242 246 240 265 250 253 24 341 187 194 216 229 217 183 205 74 345 175 180 181 185 188 188 187 189 191 192 197 198 199 200 211 198 202 206 207
313 263 271 259 272 269 231 234 254 249 250 251 234 246 266 331 213 184 199 239 230 213 134 108 30 265 183 180 183 187 190 193 187 189 194 195 201 199 204 204 208 199 205 201
317 274 275 276 257 341 290 239 251 249 243 243 249 244 243 13 0 25 7 221 242 225 183 171 177 213 227 178 180 186 190 189 192 187 194 199 199 202 204 200 206 201 198 204
253 263 266 273 286 294 285 285 286 257 250 248 244 244 254 24 348 330 358 337 358 322 222 227 266 169 190 177 180 181 188 189 188 192 194 198 200 201 200 202 197 207 204 201
302 283 272 259 271 286 274 264 263 278 242 248 260 285 299 75 309 299 346 347 35 9 6 10 5 17 183 188 184 185 186 186 190 191 195 193 195 198 202 203 201 199 207 205
247 261 281 260 267 282 260 254 245 261 272 272 260 269 292 316 275 322 316 330 323 352 354 353 348 341 353 179 182 191 191 185 189 191 191 191 190 196 201 200 204 203 202 204
211 216 234 273 294 251 262 259 262 251 260 259 265 274 289 291 288 276 284 297 302 314 325 346 335 331 326 322 202 181 185 189 190 194 190 191 193 194 193 201 204 207 203 206
240 205 230 235 264 271 293 246 337 327 242 239 285 307 314 306 281 259 272 266 292 301 279 309 308 320 329 320 316 325 187 186 194 198 198 193 193 193 192 197 202 204 205 206
269 265 212 228 242 266 260 50 5 346 266 284 356 323 324 331 311 277 286 35 354 349 350 334 316 302 302 304 295 285 265 184 197 204 201 194 192 193 195 196 199 201 204 209
304 268 239 238 249 252 269 30 333 259 290 351 351 344 336 332 319 358 39 72 337 319 319 301 297 292 273 319 333 269 262 221 197 195 199 197 192 195 192 193 197 200 204 208
307 314 247 228 244 254 9 189 223 348 337 321 330 329 330 325 322 354 12 17 10 339 339 341 351 354 357 346 326 244 245 258 202 188 198 193 197 192 189 191 195 200 204 208
321 7 309 297 309 332 352 332 326 328 315 306 309 311 315 315 316 322 343 4 357 356 340 344 345 346 356 349 334 343 317 232 213 185 191 197 192 193 195 192 198 199 203 206
295 13 290 326 348 335 323 312 311 322 302 289 285 287 294 299 305 317 329 0 353 3 347 351 344 349 348 349 341 340 337 328 195 187 185 188 187 190 199 196 197 201 202 205
275 307 295 269 300 322 333 331 328 327 293 272 269 266 276 269 296 304 321 352 348 349 356 3 2 359 353 347 340 344 344 341 252 177 185 187 188 188 196 209 199 202 206 204
233 265 316 298 312 288 295 312 322 317 324 238 224 251 256 226 278 301 303 356 342 339 347 347 360 359 357 351 345 345 348 352 8 223 192 192 197 190 197 202 196 44 224 165